Regional Weather Roundup
Issued by NWS

Home | Current Version | Previous Version | Graphics & Text | Print | Product List | Glossary On
Versions: 1 2 3 4 5 6 7 8 9 10 11 12 13 14 15 16 17 18 19 20 21 22 23 24 25 26 27 28 29 30 31 32 33 34 35 36 37 38 39 40 41 42 43 44 45 46 47 48 49 50
000
ASUS43 KOAX 210010
RWRNE

WEATHER ROUNDUP FOR NEBRASKA
NATIONAL WEATHER SERVICE OMAHA NE
700 PM CDT SAT SEP 20 2014

NOTES: SATELLITE DATA IS BEING USED TO AUGMENT CLOUD COVER ABOVE
       12000 FEET.
       "FAIR" INDICATES FEW OR NO CLOUDS BELOW 12,000 FEET WITH NO
       SIGNIFICANT WEATHER AND/OR OBSTRUCTIONS TO VISIBILITY.

  * THESE STATIONS DO NOT REPORT WEATHER SUCH AS RAIN...SNOW OR FOG.

NEZ001>004-019>022-054>056-210100-
NEBRASKA PANHANDLE

CITY           SKY/WX    TMP DP  RH WIND       PRES   REMARKS
SCOTTSBLUFF    CLEAR     79  44  28 N12       30.18R
6HR MIN TEMP:  78; 6HR MAX TEMP:  86;

ALLIANCE       CLEAR     76  39  26 N15G23    30.18R
6HR MIN TEMP:  76; 6HR MAX TEMP:  83;

CHADRON        CLEAR     75  40  28 NE16      30.17R
6HR MIN TEMP:  75; 6HR MAX TEMP:  83;

KIMBALL        CLEAR     77  41  27 N10       30.21S
SIDNEY         PTCLDY    80  42  25 N12       30.19S
6HR MIN TEMP:  78; 6HR MAX TEMP:  84;

$$

NEZ057>060-069>072-079>082-210100-
SOUTHWEST NEBRASKA

CITY           SKY/WX    TMP DP  RH WIND       PRES   REMARKS
NORTH PLATTE   CLEAR     78  50  37 NW10      30.08R
6HR MIN TEMP:  78; 6HR MAX TEMP:  85;

IMPERIAL       CLEAR     83  48  29 N7        30.12S
6HR MIN TEMP:  80; 6HR MAX TEMP:  86;

LEXINGTON      CLEAR     79  52  38 N7        30.05R
MCCOOK         CLEAR     82  50  32 N8        30.07S
6HR MIN TEMP:  82; 6HR MAX TEMP:  87;

OGALLALA       CLEAR     81  48  30 N9        30.13R
$$

NEZ005>010-023>029-035>040-094-210100-
NORTH CENTRAL NEBRASKA

CITY           SKY/WX    TMP DP  RH WIND       PRES   REMARKS
VALENTINE      CLEAR     75  40  28 N14G24    30.11R
6HR MIN TEMP:  75; 6HR MAX TEMP:  84;

AINSWORTH      CLEAR     73  45  37 N17G28    30.10R
BROKEN BOW     CLEAR     80  47  31 N16       30.06R
6HR MIN TEMP:  80; 6HR MAX TEMP:  88;

O`NEILL        CLEAR     76  49  39 NW18G26   30.04R
ORD            CLEAR     78  47  33 NW12G20   30.02R
6HR MIN TEMP:  78; 6HR MAX TEMP:  84;

THEDFORD       CLEAR     77  44  30 N13       30.12R
$$

NEZ041-046>049-061>064-073>077-083>087-210100-
SOUTH CENTRAL NEBRASKA

CITY           SKY/WX    TMP DP  RH WIND       PRES   REMARKS
GRAND ISLAND   CLEAR     81  51  35 N9        30.01R
6HR MIN TEMP:  81; 6HR MAX TEMP:  87;

AURORA         CLEAR     79  56  44 N3        30.00R
HASTINGS       CLEAR     81  53  37 N5        30.01S
6HR MIN TEMP:  80; 6HR MAX TEMP:  86;

HEBRON         CLEAR     82  50  32 N6        29.97R
HOLDREGE       CLEAR     80  50  35 N3        30.04S
KEARNEY *      CLEAR     81  52  36 NW9       30.04R
YORK           CLEAR     77  63  61 N3        29.99S
$$

NEZ011>018-030>034-042>045-210100-
NORTHEAST NEBRASKA

CITY           SKY/WX    TMP DP  RH WIND       PRES   REMARKS
NORFOLK        CLEAR     79  52  38 NW10      29.96R
6HR MIN TEMP:  79; 6HR MAX TEMP:  85;

ALBION         CLEAR     79  50  35 NW7       30.00R
BLAIR          CLEAR     80  59  48 W3        29.93S
COLUMBUS *     CLEAR     75  55  50 NW6       29.97S
FREMONT        CLEAR     78  55  44 W6        29.94S
TEKAMAH        CLEAR     79  59  50 W5        29.91S
6HR MIN TEMP:  79; 6HR MAX TEMP:  86;

WAYNE          CLEAR     78  54  43 NW9       29.94R
$$

NEZ050>053-065>068-078-088>093-210100-
SOUTHEAST NEBRASKA

CITY           SKY/WX    TMP DP  RH WIND       PRES   REMARKS
LINCOLN        CLEAR     83  57  41 NW5       29.96R
6HR MIN TEMP:  81; 6HR MAX TEMP:  88;

OMAHA EPPLEY   PTCLDY    78  59  51 NW5       29.92S
6HR MIN TEMP:  78; 6HR MAX TEMP:  86;

BEATRICE       CLEAR     80  58  46 NW7       29.96R
FALLS CITY     CLEAR     79  70  74 W5        29.92S
6HR MIN TEMP:  71; 6HR MAX TEMP:  84; 6HR PCP:  0.02;

NEBRASKA CITY    N/A     79  50  36 N5        29.95R
PLATTSMOUTH    CLEAR     79  57  47 CALM      29.94S
$$

NEZ044-045-051>053-067-210100-
OMAHA AREA

CITY           SKY/WX    TMP DP  RH WIND       PRES   REMARKS
OMAHA EPPLEY   PTCLDY    78  59  51 NW5       29.92S
6HR MIN TEMP:  78; 6HR MAX TEMP:  86;

BLAIR          CLEAR     80  59  48 W3        29.93S
FREMONT        CLEAR     78  55  44 W6        29.94S
MILLARD        CLEAR     80  59  48 CALM      29.93S
OFFUTT AFB     CLEAR     77  62  58 NW3       29.93R
PLATTSMOUTH    CLEAR     79  57  47 CALM      29.94S
WAHOO          FAIR      78  58  49 W3        29.94S
$$



USA.gov is the U.S. government's official web portal to all federal, state and local government web resources and services.